sat.trackr.live / text

‹ back to catalog

STARLINK-31098

NORAD 58716 · 2024-002M

PAYLOAD ACTIVE UNKNOWN

§ Identity

Operator
Country
US
Launch date
2024-01-03
Launch site
AFWTR
Launch vehicle
Mass (kg)
RCS (m²)

Purposes: comms

External: N2YO · Heavens-Above · Gunter

§ Orbital elements

Epoch: 2026-09-20T13:58:14.771424Z

Period
93.85 min
Inclination
53.1593°
Eccentricity
0.0001406
Mean motion
15.34388435 rev/d
Perigee alt
461.8 km
Apogee alt
463.7 km
Semi-major
6,840.9 km
B*
1.0470e-5
RAAN
43.3079°
Arg perigee
91.4239°
Mean anomaly
268.6925°
Rev number
15,187

§ Raw data

STARLINK-310981 58716U 24002M   26263.58211541 -.00000023  00000+0  10470-4 0  99922 58716  53.1593  43.3079 0001406  91.4239 268.6925 15.34388435151874

JSON: /api/v1/satellites/58716 · /tle

For live sub-satellite position, see the globe view (requires WebGL).

§ Visibility from observer

Set your observer location to see the next 7 days of passes ≥ 10°. The values pass through the URL so the page stays shareable.

No JS? Fill the form by hand. The geolocation button needs JavaScript.